WODKAN Weather Reports


time (UTC)temp
C
wind
direction
speed
KPH
gust
KPH
rain 1hr
cm
rain 24hr
cm
rain mn
cm
humidity
%
barometer
mb
20260508064826 8 318 3.2 8.0 0.00 0.10 0.00 85 1016.3
20260508064327 8 351 1.6 8.0 0.00 0.10 0.00 85 1016.3
20260508063828 8 297 3.2 8.0 0.00 0.10 0.00 85 1016.1
20260508063332 8 327 0.0 9.7 0.00 0.10 0.00 85 1016.1
20260508062835 8 328 3.2 9.7 0.00 0.10 0.00 85 1016.1
20260508062359 8 308 3.2 6.4 0.00 0.10 0.00 85 1016.1
20260508061837 8 309 3.2 8.0 0.00 0.10 0.00 85 1016.0
20260508061343 8 309 3.2 8.0 0.00 0.10 0.00 85 1016.0
20260508060842 8 290 3.2 6.4 0.00 0.10 0.00 85 1016.0
20260508060341 8 293 1.6 8.0 0.00 0.10 0.00 85 1016.0
20260508055833 8 293 3.2 8.0 0.00 0.10 0.00 85 1016.0
20260508055334 8 337 1.6 9.7 0.00 0.10 0.00 85 1016.0
20260508054837 8 337 1.6 9.7 0.00 0.10 0.00 85 1016.0
20260508054337 8 286 3.2 8.0 0.00 0.10 0.00 85 1016.0
20260508053835 8 286 3.2 8.0 0.00 0.10 0.00 85 1015.9
20260508053354 8 286 4.8 8.0 0.00 0.10 0.00 85 1016.0
20260508052833 8 287 4.8 8.0 0.00 0.10 0.00 85 1015.9
20260508052337 8 286 3.2 9.7 0.00 0.10 0.00 85 1015.8
20260508051837 8 284 6.4 9.7 0.00 0.10 0.00 85 1015.9
20260508051342 8 287 3.2 8.0 0.00 0.10 0.00 85 1016.0
20260508050841 8 308 3.2 8.0 0.00 0.10 0.00 85 1015.9
20260508050343 8 309 4.8 8.0 0.00 0.10 0.00 85 1015.9
20260508045837 8 277 4.8 9.7 0.00 0.10 0.00 84 1015.9
20260508045335 8 273 6.4 9.7 0.00 0.10 0.00 84 1015.7
20260508044838 8 313 1.6 8.0 0.00 0.10 0.00 84 1015.7
20260508044344 8 321 3.2 6.4 0.00 0.10 0.00 84 1015.8
20260508043827 8 321 0.0 6.4 0.00 0.10 0.00 84 1015.8
20260508043329 8 321 3.2 6.4 0.00 0.10 0.00 84 1015.7
20260508042831 8 336 3.2 4.8 0.00 0.10 0.00 84 1015.6
20260508042334 8 355 0.0 6.4 0.00 0.10 0.00 84 1015.5
20260508041833 8 360 1.6 6.4 0.00 0.10 0.00 84 1015.4
20260508041335 8 355 3.2 8.0 0.00 0.10 0.00 84 1015.4
20260508040838 8 329 1.6 8.0 0.00 0.10 0.00 84 1015.4
20260508040343 8 318 3.2 6.4 0.00 0.10 0.00 84 1015.3
20260508035833 8 355 1.6 6.4 0.00 0.10 0.00 84 1015.2
20260508035335 8 360 0.0 4.8 0.00 0.10 0.00 84 1015.2
20260508034834 8 350 1.6 4.8 0.00 0.20 0.00 84 1015.2
20260508034332 8 350 0.0 3.2 0.00 0.20 0.00 84 1015.2
20260508033835 8 350 0.0 4.8 0.00 0.20 0.00 84 1015.2
20260508033352 8 350 0.0 8.0 0.00 0.20 0.00 84 1015.2
20260508032831 8 15 0.0 8.0 0.00 0.20 0.00 84 1015.1
20260508032337 8 319 1.6 6.4 0.00 0.20 0.00 84 1015.1
20260508031835 8 319 1.6 6.4 0.00 0.20 0.00 84 1015.2
20260508031401 8 319 3.2 6.4 0.00 0.20 0.00 84 1015.1
20260508030842 8 317 3.2 8.0 0.00 0.20 0.00 83 1015.0
20260508030343 8 317 3.2 8.0 0.00 0.20 0.00 83 1015.0
20260508025834 8 345 3.2 8.0 0.00 0.20 0.00 83 1015.0
20260508025338 8 9 3.2 9.7 0.00 0.20 0.00 83 1015.0
20260508024840 8 329 4.8 9.7 0.00 0.20 0.00 83 1014.9
20260508024359 8 315 1.6 6.4 0.00 0.20 0.00 83 1014.9
20260508023840 8 338 1.6 4.8 0.00 0.20 0.00 83 1015.0
20260508023406 8 338 1.6 6.4 0.00 0.20 0.00 82 1015.0
20260508022844 8 338 3.2 8.0 0.00 0.20 0.00 83 1015.0
20260508022345 8 333 1.6 11.3 0.00 0.20 0.00 82 1015.0
20260508021904 8 5 4.8 11.3 0.00 0.20 0.00 82 1015.0
20260508021343 8 342 3.2 9.7 0.00 0.20 0.00 82 1014.9
20260508020846 8 326 3.2 8.0 0.00 0.20 0.00 82 1014.9
20260508020402 8 309 3.2 8.0 0.00 0.20 0.00 81 1014.9
20260508015830 8 329 4.8 8.0 0.00 0.20 0.00 81 1014.9
20260508015334 8 311 1.6 6.4 0.00 0.20 0.00 81 1014.9
20260508014853 8 341 3.2 6.4 0.00 0.20 0.00 81 1014.9
20260508014351 8 13 1.6 8.0 0.00 0.20 0.00 81 1015.0
20260508013829 8 355 3.2 8.0 0.00 0.20 0.00 81 1015.0
20260508013330 8 335 0.0 9.7 0.00 0.20 0.00 80 1015.0
20260508012834 8 335 3.2 11.3 0.00 0.20 0.00 80 1015.0
20260508012332 8 355 4.8 11.3 0.00 0.20 0.00 80 1015.0
20260508011831 8 360 6.4 11.3 0.00 0.20 0.00 80 1015.0
20260508011336 8 343 4.8 9.7 0.00 0.20 0.00 80 1015.0
20260508010836 8 323 4.8 8.0 0.00 0.20 0.00 80 1015.2
20260508010603 8 355 3.2 8.0 0.00 0.20 0.00 80 1015.2
20260508005828 8 326 1.6 6.4 0.00 0.20 0.00 80 1015.1
20260508005329 8 326 1.6 6.4 0.00 0.20 0.00 80 1015.2
20260508004833 8 325 1.6 8.0 0.00 0.20 0.00 80 1015.2
20260508004357 8 298 4.8 8.0 0.00 0.20 0.00 80 1015.1
20260508003842 8 288 0.0 9.7 0.00 0.20 0.00 80 1015.0
20260508003327 8 360 6.4 9.7 0.00 0.20 0.00 80 1015.0
20260508002831 8 317 1.6 6.4 0.00 0.20 0.00 80 1014.9
20260508002335 8 313 1.6 9.7 0.00 0.20 0.00 80 1014.9
20260508001837 8 309 4.8 9.7 0.00 0.20 0.00 80 1014.9
20260508001341 8 9 3.2 11.3 0.00 0.20 0.00 80 1014.9
20260508000901 9 346 3.2 11.3 0.00 0.20 0.00 80 1014.9
20260508000342 9 298 4.8 9.7 0.00 0.20 0.00 80 1014.8
20260507235837 9 313 1.6 8.0 0.00 0.20 0.00 80 1014.8
20260507235334 9 329 3.2 11.3 0.00 0.20 0.00 80 1014.8
20260507234833 9 346 3.2 11.3 0.00 0.61 0.00 80 1014.7
20260507234332 9 298 3.2 8.0 0.00 0.61 0.00 80 1014.8
20260507233831 9 292 1.6 8.0 0.00 0.61 0.00 80 1014.9
20260507233332 9 311 3.2 8.0 0.00 0.61 0.00 80 1014.8
20260507232831 9 305 1.6 6.4 0.00 0.61 0.00 80 1014.7
20260507232354 9 304 1.6 6.4 0.00 0.61 0.00 80 1014.7
20260507231855 9 336 0.0 9.7 0.00 0.61 0.00 80 1014.6
20260507231336 9 336 3.2 9.7 0.00 0.61 0.00 80 1014.6
20260507230836 9 313 3.2 9.7 0.00 0.61 0.00 80 1014.7
20260507230338 9 355 4.8 9.7 0.00 0.61 0.00 80 1014.5
20260507225832 10 306 3.2 8.0 0.00 0.61 0.00 80 1014.5
20260507225334 10 338 3.2 6.4 0.00 0.61 0.00 80 1014.5
20260507224833 10 340 1.6 8.0 0.00 0.99 0.00 80 1014.5
20260507224356 10 339 4.8 8.0 0.00 0.99 0.00 80 1014.6
20260507223854 10 315 4.8 8.0 0.00 0.99 0.00 80 1014.6
20260507223355 10 342 1.6 6.4 0.00 0.99 0.00 80 1014.7
20260507222836 10 333 1.6 8.0 0.00 0.99 0.00 80 1014.6
20260507221834 10 313 0.0 8.0 0.00 0.99 0.00 80 1014.4
20260507221336 10 355 1.6 6.4 0.00 0.99 0.00 80 1014.4
20260507220839 10 355 3.2 6.4 0.00 0.99 0.00 80 1014.3
20260507220345 10 331 1.6 6.4 0.00 0.99 0.00 81 1014.3
20260507215856 10 332 0.0 6.4 0.00 0.99 0.00 81 1014.3
20260507215336 10 12 1.6 6.4 0.00 0.99 0.00 81 1014.3
20260507214839 10 12 1.6 6.4 0.00 1.30 0.20 81 1014.3
20260507214342 10 21 3.2 9.7 0.00 1.30 0.20 81 1014.3
20260507213904 10 321 3.2 9.7 0.00 1.30 0.20 81 1014.2
20260507213405 10 18 0.0 8.0 0.00 1.30 0.20 81 1014.2
20260507212823 10 310 6.4 8.0 0.00 1.30 0.20 81 1014.2
20260507212331 10 330 1.6 8.0 0.00 1.30 0.20 81 1014.2
20260507211830 10 320 3.2 8.0 0.00 1.30 0.20 81 1014.3
20260507211332 10 346 1.6 4.8 0.00 1.30 0.20 81 1014.4
20260507210831 10 346 0.0 4.8 0.00 1.30 0.20 81 1014.4
20260507210331 10 346 1.6 4.8 0.00 1.30 0.20 81 1014.5
20260507205843 10 346 0.0 4.8 0.00 1.30 0.20 81 1014.5
20260507205341 10 346 1.6 4.8 0.00 1.30 0.20 81 1014.4
20260507204840 10 344 0.0 4.8 0.00 1.91 0.20 81 1014.2
20260507204343 10 344 0.0 4.8 0.00 1.91 0.20 81 1014.3
20260507203842 10 344 0.0 4.8 0.00 1.91 0.20 81 1014.2
20260507203346 10 344 0.0 8.0 0.00 1.91 0.20 81 1014.1
20260507202846 10 346 4.8 9.7 0.00 1.91 0.20 81 1014.1
20260507202329 10 355 3.2 9.7 0.00 1.91 0.20 81 1014.2
20260507201828 10 311 0.0 8.0 0.00 1.91 0.20 81 1014.1
20260507201348 10 311 4.8 8.0 0.00 1.91 0.20 81 1014.1
20260507200828 10 314 1.6 8.0 0.00 1.91 0.20 81 1014.0
20260507200346 10 346 3.2 8.0 0.00 1.91 0.20 81 1014.0
20260507195857 10 355 3.2 8.0 0.00 1.91 0.20 81 1013.8
20260507195338 10 325 1.6 6.4 0.00 1.91 0.20 81 1013.8
20260507194837 10 5 1.6 8.0 0.00 1.91 0.20 81 1013.8
20260507194338 10 19 1.6 9.7 0.00 1.91 0.20 81 1013.8
20260507193842 10 46 4.8 9.7 0.00 1.91 0.20 81 1013.8
20260507193408 10 329 4.8 8.0 0.00 1.91 0.20 81 1013.8
20260507192845 10 355 1.6 6.4 0.00 1.91 0.20 81 1013.8
20260507192332 10 355 1.6 6.4 0.00 1.91 0.20 81 1013.7
20260507191830 10 355 3.2 6.4 0.00 1.91 0.20 81 1013.7
20260507191333 10 355 1.6 6.4 0.00 1.91 0.20 81 1013.7
20260507190836 10 344 0.0 6.4 0.00 1.91 0.20 81 1013.6
20260507190337 10 343 1.6 6.4 0.00 1.91 0.20 81 1013.4
20260507185838 10 328 3.2 8.0 0.00 1.91 0.20 81 1013.3
20260507185344 10 343 1.6 11.3 0.00 1.91 0.20 80 1013.4
20260507184823 10 30 4.8 11.3 0.00 1.91 0.20 80 1013.4
20260507184329 10 338 3.2 8.0 0.00 1.91 0.20 80 1013.4
20260507183828 10 341 1.6 8.0 0.00 1.91 0.20 81 1013.3
20260507183332 10 325 3.2 8.0 0.00 1.91 0.20 81 1013.2
20260507182832 10 332 1.6 6.4 0.00 1.91 0.20 81 1013.0
20260507182336 10 60 1.6 4.8 0.00 1.91 0.20 81 1013.0
20260507181837 10 61 1.6 6.4 0.00 1.91 0.20 80 1012.9
20260507181344 10 61 3.2 8.0 0.00 1.91 0.20 80 1012.9
20260507180828 10 334 3.2 8.0 0.00 1.91 0.20 80 1012.8
20260507180352 10 355 0.0 6.4 0.00 1.91 0.20 81 1012.9
20260507175826 10 9 1.6 6.4 0.00 1.91 0.20 81 1012.9
20260507175329 10 360 0.0 8.0 0.00 1.91 0.20 80 1012.8
20260507174828 10 355 3.2 8.0 0.00 1.91 0.20 80 1012.8
20260507174330 11 5 1.6 8.0 0.00 1.91 0.20 81 1012.8
20260507173829 10 13 1.6 8.0 0.00 1.91 0.20 80 1012.8
20260507173332 10 36 4.8 9.7 0.00 1.91 0.20 80 1012.7
20260507172832 11 23 3.2 9.7 0.00 1.91 0.20 80 1012.7
20260507172336 11 323 3.2 6.4 0.00 1.91 0.20 80 1012.6
20260507171839 11 325 1.6 4.8 0.00 1.91 0.20 80 1012.5
20260507171344 11 323 0.0 4.8 0.00 1.91 0.20 80 1012.5
20260507170827 11 323 1.6 8.0 0.00 1.91 0.20 80 1012.5
20260507170327 11 315 1.6 8.0 0.00 1.91 0.20 80 1012.3
20260507165842 11 39 1.6 8.0 0.00 1.91 0.20 80 1012.2
20260507165343 11 40 3.2 8.0 0.00 1.91 0.20 80 1012.2
20260507164843 11 306 3.2 11.3 0.00 1.91 0.20 80 1012.1
20260507164403 11 27 3.2 11.3 0.00 1.91 0.20 80 1012.0
20260507163901 11 333 3.2 11.3 0.00 1.91 0.20 80 1012.0
20260507163338 11 331 4.8 11.3 0.00 1.91 0.20 80 1012.0
20260507162840 11 343 1.6 12.9 0.00 1.91 0.20 81 1011.9
20260507162340 11 57 4.8 12.9 0.00 1.91 0.20 81 1011.8
20260507161840 11 52 6.4 12.9 0.00 1.91 0.20 81 1011.8
20260507161357 11 21 8.0 12.9 0.00 1.91 0.20 80 1011.9
20260507160835 11 333 6.4 14.5 0.00 1.91 0.20 80 1011.9
20260507160337 11 5 4.8 14.5 0.00 1.91 0.20 80 1011.9
20260507155834 11 32 6.4 14.5 0.00 1.91 0.20 80 1011.9
20260507155334 11 337 4.8 12.9 0.00 1.91 0.20 80 1011.9
20260507154838 11 53 4.8 12.9 0.00 1.91 0.20 80 1011.9
20260507154405 11 302 4.8 12.9 0.00 1.91 0.20 80 1011.9
20260507153843 11 295 4.8 11.3 0.00 1.91 0.20 80 1011.7
20260507153347 11 5 6.4 12.9 0.00 1.91 0.20 80 1011.7
20260507152845 11 9 6.4 12.9 0.00 1.91 0.20 80 1011.7
20260507152327 11 351 3.2 11.3 0.00 1.91 0.20 79 1011.7
20260507151830 12 351 1.6 12.9 0.00 1.91 0.20 79 1011.8
20260507151333 12 292 4.8 12.9 0.00 1.91 0.20 79 1011.8
20260507150832 12 28 6.4 12.9 0.00 1.91 0.20 79 1011.7
20260507150336 12 329 3.2 16.1 0.00 1.91 0.20 79 1011.7
20260507145826 12 327 8.0 16.1 0.00 1.91 0.20 79 1011.6
20260507145332 12 321 6.4 14.5 0.00 1.91 0.20 79 1011.6
20260507144852 12 5 6.4 14.5 0.00 1.91 0.20 79 1011.7
20260507144331 12 17 4.8 14.5 0.00 1.91 0.20 79 1011.6
20260507143834 12 321 3.2 16.1 0.00 1.91 0.20 79 1011.6
20260507143336 12 23 8.0 16.1 0.00 1.91 0.20 79 1011.6
20260507142835 12 272 3.2 9.7 0.00 1.91 0.20 79 1011.6
20260507142358 12 295 1.6 12.9 0.00 1.91 0.20 79 1011.5
20260507141839 12 355 4.8 16.1 0.00 1.91 0.20 79 1011.6
20260507141343 12 319 6.4 16.1 0.00 1.91 0.20 79 1011.6
20260507140842 12 306 4.8 14.5 0.00 1.91 0.20 79 1011.6
20260507140345 13 313 6.4 14.5 0.00 1.91 0.20 79 1011.5
20260507135837 13 301 4.8 9.7 0.00 1.91 0.20 79 1011.8
20260507135335 13 325 6.4 9.7 0.00 1.91 0.20 78 1011.8
20260507134834 13 317 4.8 9.7 0.00 1.91 0.20 79 1011.7
20260507134341 13 305 4.8 9.7 0.00 1.91 0.20 79 1011.8
20260507133840 13 15 4.8 9.7 0.00 1.91 0.20 79 1011.7
20260507132835 13 314 3.2 9.7 0.00 1.91 0.20 79 1011.4
20260507132355 13 325 3.2 9.7 0.00 1.91 0.20 79 1011.4
20260507131835 13 311 4.8 9.7 0.00 1.91 0.20 79 1011.3
20260507131342 13 20 3.2 11.3 0.00 1.91 0.20 79 1011.3
20260507130840 13 19 3.2 11.3 0.00 1.91 0.20 79 1011.3
20260507130345 13 11 4.8 8.0 0.00 1.91 0.20 79 1011.3
20260507125828 13 360 3.2 8.0 0.00 1.91 0.20 79 1011.2
20260507125329 13 10 1.6 6.4 0.00 1.91 0.20 79 1011.2
20260507124827 13 10 1.6 8.0 0.00 1.91 0.20 79 1011.3
20260507124348 13 333 3.2 8.0 0.00 1.91 0.20 80 1011.2
20260507123847 13 329 4.8 8.0 0.00 1.91 0.20 80 1011.2
20260507123344 13 331 3.2 8.0 0.00 1.91 0.20 80 1011.1
20260507122903 13 77 4.8 8.0 0.00 1.91 0.20 80 1011.1
20260507122345 13 5 3.2 8.0 0.00 1.91 0.20 81 1011.0
20260507121902 12 63 3.2 9.7 0.00 1.91 0.20 81 1011.0
20260507121342 12 26 4.8 9.7 0.00 1.91 0.20 81 1011.1
20260507120842 12 19 3.2 8.0 0.00 1.91 0.20 82 1011.1
20260507120340 12 346 1.6 4.8 0.00 1.91 0.20 82 1011.1
20260507115835 12 346 0.0 4.8 0.00 1.91 0.20 82 1011.2
20260507115343 12 346 0.0 4.8 0.00 1.91 0.20 82 1011.2
20260507114823 12 346 1.6 6.4 0.00 1.91 0.20 82 1011.2
20260507114348 12 346 3.2 6.4 0.00 1.91 0.20 82 1011.3
20260507113345 12 12 3.2 8.0 0.00 1.91 0.20 83 1011.1
20260507112844 12 346 0.0 8.0 0.00 1.91 0.20 83 1011.1
20260507112408 12 346 3.2 8.0 0.00 1.91 0.20 84 1010.9
20260507111843 12 58 1.6 6.4 0.00 1.91 0.20 83 1011.1
20260507111345 12 30 1.6 8.0 0.00 1.91 0.20 84 1011.0
20260507110844 12 30 0.0 9.7 0.00 1.91 0.20 84 1011.0
20260507110342 12 31 3.2 9.7 0.00 1.91 0.20 84 1011.0
20260507105833 12 319 1.6 9.7 0.00 1.91 0.20 84 1010.9
20260507105336 11 320 4.8 9.7 0.00 1.91 0.20 84 1010.8
20260507104836 11 300 3.2 8.0 0.00 1.91 0.20 85 1010.8
20260507104344 11 280 3.2 8.0 0.00 1.91 0.20 85 1010.8
20260507103842 11 315 4.8 8.0 0.00 1.91 0.20 85 1010.7
20260507103346 11 308 1.6 8.0 0.00 1.91 0.20 85 1010.7
20260507102843 11 308 1.6 8.0 0.00 1.91 0.20 85 1010.7
20260507102343 11 329 4.8 12.9 0.00 1.91 0.20 85 1010.5
20260507101903 11 347 4.8 12.9 0.00 1.91 0.20 85 1010.3
20260507101336 11 5 3.2 9.7 0.00 1.91 0.20 85 1010.3
20260507100858 11 360 3.2 9.7 0.00 1.91 0.20 86 1010.2
20260507100340 11 339 1.6 8.0 0.00 1.91 0.20 85 1010.2
20260507095833 11 320 3.2 9.7 0.00 1.91 0.20 86 1010.2
20260507095356 11 349 4.8 9.7 0.00 1.91 0.20 86 1010.3
20260507094833 11 11 1.6 9.7 0.00 1.91 0.20 86 1010.2
20260507094335 11 34 4.8 9.7 0.00 1.91 0.20 86 1010.2
20260507093858 11 302 4.8 8.0 0.00 1.91 0.20 85 1010.2
20260507093337 11 323 3.2 6.4 0.00 1.91 0.20 85 1010.1
20260507092836 11 294 3.2 8.0 0.00 1.91 0.20 85 1010.1
20260507092335 11 317 3.2 8.0 0.00 1.91 0.20 85 1010.1
20260507091841 11 306 1.6 8.0 0.00 1.91 0.20 86 1010.1
20260507091341 11 340 3.2 8.0 0.00 1.91 0.20 86 1010.0
20260507090839 11 305 1.6 6.4 0.00 1.91 0.20 86 1010.0
20260507090341 11 324 3.2 6.4 0.00 1.91 0.20 86 1010.0
20260507085835 11 317 3.2 6.4 0.00 1.91 0.20 86 1009.8
20260507085331 10 334 1.6 8.0 0.00 1.91 0.20 85 1009.7
20260507084830 10 5 3.2 11.3 0.00 1.91 0.20 85 1009.6
20260507084333 10 355 3.2 11.3 0.00 1.91 0.20 85 1009.7
20260507083835 10 281 4.8 11.3 0.00 1.91 0.20 85 1009.6
20260507083332 10 293 3.2 11.3 0.00 1.91 0.20 85 1009.5
20260507082832 10 311 4.8 9.7 0.00 1.91 0.20 85 1009.5
20260507082336 10 275 4.8 8.0 0.00 1.91 0.20 85 1009.5
20260507081835 10 331 3.2 8.0 0.00 1.91 0.20 85 1009.4
20260507081342 10 327 3.2 8.0 0.00 1.91 0.20 85 1009.4
20260507080846 10 315 3.2 8.0 0.00 1.91 0.20 85 1009.2
20260507080405 10 346 1.6 11.3 0.00 1.91 0.20 85 1009.3
20260507075835 10 331 1.6 11.3 0.00 1.91 0.20 85 1009.3
20260507075336 10 319 4.8 11.3 0.00 1.91 0.20 85 1009.3
20260507074858 10 337 4.8 9.7 0.00 1.91 0.20 85 1009.2
20260507074338 10 346 1.6 11.3 0.10 1.91 0.20 85 1009.1
20260507073857 10 322 4.8 11.3 0.10 1.91 0.20 85 1009.1
20260507073348 10 325 4.8 11.3 0.10 1.91 0.20 85 1009.1
20260507072826 10 302 3.2 6.4 0.10 1.91 0.20 85 1009.1
20260507072328 10 337 1.6 9.7 0.10 1.91 0.20 85 1009.0
20260507071827 10 298 3.2 11.3 0.10 1.91 0.20 85 1008.9
20260507071330 10 343 6.4 11.3 0.10 1.91 0.20 85 1008.8
20260507070829 10 314 6.4 11.3 0.10 1.91 0.20 85 1008.7
20260507070330 10 296 4.8 9.7 0.10 1.91 0.20 85 1008.5
20260507065841 10 330 4.8 9.7 0.10 1.91 0.20 85 1008.4
20260507065344 10 22 4.8 9.7 0.10 1.91 0.20 85 1008.4